When you browse on this site, cookies collect data to enhance your experience and personalize the content and advertising you see.
Visit our Privacy Policy to learn more. By continuing to use the site, you agree to this use of cookies and data.
  • In United Kingdom
  • List of Countries
  • For 7 days
  • Water Temperature
  • Weather Map
  • Weather Widgets
  • user-avatar
    Login

    Hourly Weather Mutare

    Today, 13 November, Wednesday

    Time Temperature Precipitation Wind Pressure Humidity
    00:00 +19°C° 0 mm 1 mps 652 mmHg 93%
    01:00 +18°C° 0 mm 2 mps 651 mmHg 93%
    02:00 +18°C° 0 mm 2 mps 651 mmHg 93%
    03:00 +18°C° 0 mm 2 mps 651 mmHg 93%
    04:00 +17°C° 0 mm 2 mps 651 mmHg 94%
    05:00 +17°C° 0 mm 2 mps 651 mmHg 94%
    06:00 +18°C° 0 mm 2 mps 652 mmHg 89%
    07:00 +20°C° 0 mm 2 mps 652 mmHg 83%
    08:00 +21°C° 0 mm 2 mps 653 mmHg 78%
    09:00 +24°C° 0 mm 2 mps 653 mmHg 66%
    10:00 +27°C° 0 mm 2 mps 654 mmHg 54%
    11:00 +30°C° 0 mm 2 mps 654 mmHg 42%
    12:00 +30°C° 0 mm 2 mps 654 mmHg 43%
    13:00 +30°C° 0 mm 3 mps 653 mmHg 43%
    14:00 +30°C° 0 mm 3 mps 652 mmHg 44%
    15:00 +28°C° 0.3 mm 2 mps 651 mmHg 52%
    16:00 +26°C° 0.3 mm 2 mps 651 mmHg 59%
    17:00 +24°C° 0.3 mm 1 mps 650 mmHg 67%
    18:00 +24°C° 0.3 mm 1 mps 651 mmHg 71%
    19:00 +23°C° 0.3 mm 1 mps 651 mmHg 74%
    20:00 +22°C° 0.3 mm 1 mps 652 mmHg 77%
    21:00 +22°C° 0.1 mm 1 mps 652 mmHg 81%
    22:00 +21°C° 0.1 mm 1 mps 652 mmHg 84%
    23:00 +20°C° 0.1 mm 1 mps 652 mmHg 88%

    Tomorrow, 14 November, Thursday

    Time Temperature Precipitation Wind Pressure Humidity
    00:00 +20°C° 0.1 mm 1 mps 652 mmHg 90%
    01:00 +18°C° 0.1 mm 0 mps 651 mmHg 91%
    02:00 +17°C° 0.1 mm 0 mps 651 mmHg 93%
    03:00 +17°C° 0.1 mm 0 mps 651 mmHg 94%
    04:00 +17°C° 0.1 mm 0 mps 651 mmHg 94%
    05:00 +17°C° 0.1 mm 0 mps 652 mmHg 95%
    06:00 +20°C° 0.1 mm 1 mps 652 mmHg 90%
    07:00 +22°C° 0.1 mm 1 mps 653 mmHg 84%
    08:00 +23°C° 0.1 mm 1 mps 653 mmHg 78%
    09:00 +24°C° 0.4 mm 1 mps 653 mmHg 75%
    10:00 +24°C° 0.4 mm 1 mps 653 mmHg 72%
    11:00 +25°C° 0.4 mm 1 mps 652 mmHg 68%
    12:00 +25°C° 0.9 mm 1 mps 652 mmHg 72%
    13:00 +24°C° 0.9 mm 1 mps 651 mmHg 77%
    14:00 +23°C° 0.9 mm 1 mps 650 mmHg 81%
    15:00 +24°C° 0.3 mm 1 mps 650 mmHg 79%
    16:00 +22°C° 0.3 mm 0 mps 650 mmHg 76%
    17:00 +22°C° 0.3 mm 0 mps 650 mmHg 74%
    18:00 +21°C° 1 mm 0 mps 650 mmHg 80%
    19:00 +22°C° 1 mm 1 mps 650 mmHg 85%
    20:00 +21°C° 1 mm 1 mps 650 mmHg 91%
    21:00 +21°C° 0.4 mm 1 mps 650 mmHg 91%
    22:00 +20°C° 0.4 mm 1 mps 650 mmHg 92%
    23:00 +20°C° 0.4 mm 1 mps 650 mmHg 92%

    Day after tomorrow, 15 November, Friday

    Time Temperature Precipitation Wind Pressure Humidity
    00:00 +20°C° 0.9 mm 1 mps 650 mmHg 93%
    01:00 +20°C° 0.9 mm 1 mps 650 mmHg 95%
    02:00 +19°C° 0.9 mm 1 mps 649 mmHg 96%
    03:00 +20°C° 0.3 mm 1 mps 649 mmHg 96%
    04:00 +20°C° 0.3 mm 1 mps 649 mmHg 96%
    05:00 +20°C° 0.3 mm 1 mps 649 mmHg 96%
    06:00 +21°C° 0.1 mm 1 mps 650 mmHg 92%
    07:00 +22°C° 0.1 mm 1 mps 650 mmHg 89%
    08:00 +22°C° 0.1 mm 1 mps 651 mmHg 85%
    09:00 +23°C° 0.3 mm 1 mps 650 mmHg 80%
    10:00 +25°C° 0.3 mm 1 mps 650 mmHg 75%
    11:00 +26°C° 0.3 mm 1 mps 650 mmHg 70%
    12:00 +30°C° 0.3 mm 2 mps 651 mmHg 48%
    13:00 +31°C° 0.3 mm 2 mps 650 mmHg 45%
    14:00 +31°C° 0.3 mm 2 mps 649 mmHg 41%
    15:00 +29°C° 0 mm 2 mps 649 mmHg 47%
    16:00 +28°C° 0 mm 1 mps 648 mmHg 52%
    17:00 +26°C° 0 mm 1 mps 648 mmHg 58%
    18:00 +24°C° 1 mm 1 mps 648 mmHg 68%
    19:00 +23°C° 1 mm 1 mps 649 mmHg 79%
    20:00 +21°C° 1 mm 1 mps 649 mmHg 89%
    21:00 +20°C° 0.9 mm 1 mps 649 mmHg 91%
    22:00 +20°C° 0.9 mm 1 mps 649 mmHg 94%
    23:00 +20°C° 0.9 mm 1 mps 649 mmHg 97%

    16 November, Saturday

    Time Temperature Precipitation Wind Pressure Humidity
    00:00 +20°C° 0.4 mm 1 mps 649 mmHg 96%
    01:00 +19°C° 0.4 mm 1 mps 648 mmHg 96%
    02:00 +19°C° 0.4 mm 1 mps 648 mmHg 96%
    03:00 +17°C° 0.2 mm 0 mps 648 mmHg 96%
    04:00 +17°C° 0.2 mm 0 mps 649 mmHg 96%
    05:00 +17°C° 0.2 mm 0 mps 649 mmHg 96%
    06:00 +18°C° 0.2 mm 0 mps 649 mmHg 91%
    07:00 +21°C° 0.2 mm 1 mps 650 mmHg 87%
    08:00 +22°C° 0.2 mm 1 mps 650 mmHg 83%
    09:00 +24°C° 0.3 mm 1 mps 651 mmHg 72%
    10:00 +27°C° 0.3 mm 1 mps 651 mmHg 62%
    11:00 +29°C° 0.3 mm 1 mps 652 mmHg 51%
    12:00 +30°C° 0.6 mm 1 mps 651 mmHg 51%
    13:00 +30°C° 0.6 mm 1 mps 650 mmHg 50%
    14:00 +30°C° 0.6 mm 1 mps 650 mmHg 50%
    15:00 +28°C° 1.5 mm 1 mps 649 mmHg 60%
    16:00 +25°C° 1.5 mm 1 mps 648 mmHg 71%
    17:00 +23°C° 1.5 mm 1 mps 648 mmHg 82%
    18:00 +22°C° 0.8 mm 1 mps 648 mmHg 85%
    19:00 +22°C° 0.8 mm 1 mps 648 mmHg 88%
    20:00 +21°C° 0.8 mm 1 mps 649 mmHg 91%
    21:00 +21°C° 0.4 mm 1 mps 649 mmHg 92%
    22:00 +21°C° 0.4 mm 1 mps 649 mmHg 92%
    23:00 +20°C° 0.4 mm 1 mps 650 mmHg 93%

    17 November, Sunday

    Time Temperature Precipitation Wind Pressure Humidity
    00:00 +20°C° 0.2 mm 1 mps 649 mmHg 94%
    01:00 +20°C° 0.2 mm 1 mps 649 mmHg 94%
    02:00 +19°C° 0.2 mm 1 mps 649 mmHg 95%
    03:00 +19°C° 0 mm 1 mps 649 mmHg 95%
    04:00 +19°C° 0 mm 1 mps 649 mmHg 95%
    05:00 +19°C° 0 mm 1 mps 649 mmHg 94%
    06:00 +21°C° 0 mm 1 mps 650 mmHg 86%
    07:00 +21°C° 0 mm 2 mps 651 mmHg 78%
    08:00 +24°C° 0 mm 2 mps 651 mmHg 70%
    09:00 +25°C° 0.2 mm 2 mps 651 mmHg 65%
    10:00 +27°C° 0.2 mm 2 mps 652 mmHg 60%
    11:00 +28°C° 0.2 mm 2 mps 652 mmHg 55%
    12:00 +28°C° 0.7 mm 2 mps 651 mmHg 58%
    13:00 +28°C° 0.7 mm 2 mps 651 mmHg 60%
    14:00 +27°C° 0.7 mm 3 mps 650 mmHg 63%
    15:00 +26°C° 1.5 mm 2 mps 650 mmHg 71%
    16:00 +24°C° 1.5 mm 1 mps 649 mmHg 79%
    17:00 +22°C° 1.5 mm 1 mps 649 mmHg 87%
    18:00 +22°C° 0.1 mm 1 mps 649 mmHg 89%
    19:00 +21°C° 0.1 mm 1 mps 649 mmHg 91%
    20:00 +20°C° 0.1 mm 1 mps 650 mmHg 93%
    21:00 +19°C° 0.1 mm 2 mps 650 mmHg 94%
    22:00 +19°C° 0.1 mm 2 mps 650 mmHg 94%
    23:00 +19°C° 0.1 mm 2 mps 650 mmHg 95%

    18 November, Monday

    Time Temperature Precipitation Wind Pressure Humidity
    00:00 +19°C° 0 mm 2 mps 650 mmHg 96%
    01:00 +19°C° 0 mm 2 mps 650 mmHg 96%
    02:00 +19°C° 0 mm 2 mps 650 mmHg 97%
    03:00 +20°C° 0 mm 1 mps 650 mmHg 97%
    04:00 +20°C° 0 mm 1 mps 650 mmHg 97%
    05:00 +19°C° 0 mm 1 mps 650 mmHg 97%
    06:00 +21°C° 0.1 mm 1 mps 651 mmHg 89%
    07:00 +23°C° 0.1 mm 1 mps 651 mmHg 81%
    08:00 +25°C° 0.1 mm 1 mps 652 mmHg 74%
    09:00 +27°C° 0.4 mm 1 mps 652 mmHg 64%
    10:00 +29°C° 0.4 mm 1 mps 653 mmHg 55%
    11:00 +32°C° 0.4 mm 1 mps 653 mmHg 45%
    12:00 +31°C° 0.2 mm 2 mps 652 mmHg 46%
    13:00 +31°C° 0.2 mm 2 mps 651 mmHg 46%
    14:00 +30°C° 0.2 mm 2 mps 650 mmHg 46%
    15:00 +30°C° 0 mm 2 mps 650 mmHg 49%
    16:00 +29°C° 0 mm 2 mps 650 mmHg 51%
    17:00 +29°C° 0 mm 2 mps 649 mmHg 54%
    18:00 +27°C° 0 mm 2 mps 649 mmHg 60%
    19:00 +25°C° 0 mm 2 mps 649 mmHg 67%
    20:00 +23°C° 0 mm 1 mps 649 mmHg 73%
    21:00 +23°C° 0 mm 1 mps 650 mmHg 75%
    22:00 +23°C° 0 mm 1 mps 650 mmHg 77%
    23:00 +22°C° 0 mm 1 mps 650 mmHg 79%
    Show more